CST,Max TemperatureF,Mean TemperatureF,Min TemperatureF,Max Dew PointF,MeanDew PointF,Min DewpointF,Max Humidity, Mean Humidity, Min Humidity, Max Sea Level PressureIn, Mean Sea Level PressureIn, Min Sea Level PressureIn, Max VisibilityMiles, Mean VisibilityMiles, Min VisibilityMiles, Max Wind SpeedMPH, Mean Wind SpeedMPH, Max Gust SpeedMPH,PrecipitationIn, CloudCover, Events, WindDirDegrees
2012-12-1,80,76,71,70,69,68,91,84,69,30.14,30.10,30.06,10,10,10,15,8,20,0.00,2,,154
2012-12-2,81,75,69,69,67,67,96,83,62,30.16,30.10,30.07,10,10,8,16,8,20,0.00,0,,147
2012-12-3,80,72,64,70,67,64,100,91,62,30.07,30.04,29.98,10,5,0,14,4,23,0.00,2,Fog,152
2012-12-4,82,74,66,72,69,64,96,86,69,30.16,30.09,30.02,10,8,2,15,8,18,0.53,5,Rain-Thunderstorm,140
2012-12-5,73,65,57,64,56,46,94,72,48,30.22,30.13,30.06,10,10,7,13,8,,0.00,1,,36
2012-12-6,72,64,55,65,61,55,100,93,68,30.04,29.94,29.88,10,4,0,10,4,,0.00,3,Fog,99
2012-12-7,79,74,68,69,68,66,96,85,66,29.89,29.84,29.79,10,10,10,12,6,21,0.00,0,,160
2012-12-8,79,74,69,70,69,68,97,85,69,29.90,29.85,29.81,10,9,5,18,8,23,0.00,2,,153
2012-12-9,78,74,71,72,70,69,94,89,79,29.92,29.84,29.79,10,8,4,12,7,22,0.00,3,,164
2012-12-10,73,60,46,72,41,22,94,58,28,30.14,29.98,29.81,10,9,7,30,14,40,0.00,5,,356
2012-12-11,52,47,42,30,27,23,58,44,35,30.24,30.16,30.10,10,10,10,18,11,23,0.00,4,,39
2012-12-12,60,50,41,44,35,29,83,59,36,30.34,30.27,30.23,10,10,10,12,6,,0.00,0,,54
2012-12-13,66,56,46,58,51,44,93,79,59,30.30,30.24,30.18,10,10,10,15,7,,0.00,4,,71
2012-12-14,75,69,63,66,64,59,90,80,69,30.15,30.03,29.92,10,10,9,15,10,22,0.00,6,Rain,146
2012-12-15,77,73,69,72,69,66,100,90,78,29.96,29.88,29.85,10,6,3,13,7,23,0.00,7,Rain,155
2012-12-16,79,72,64,72,69,57,96,88,75,29.87,29.80,29.72,10,6,4,10,7,18,0.00,6,Rain,173
2012-12-17,77,67,57,56,47,37,87,56,24,30.00,29.93,29.85,10,10,10,13,6,,0.00,0,,296
2012-12-18,75,63,51,68,60,51,100,86,62,29.96,29.91,29.84,10,7,0,13,6,21,0.00,1,Fog,182
2012-12-19,77,74,70,70,69,68,94,88,78,29.85,29.79,29.71,9,7,5,14,11,25,0.00,5,,165
2012-12-20,73,60,46,70,34,12,94,43,15,30.50,30.19,29.79,10,8,5,32,16,40,0.00,3,Rain,331
2012-12-21,55,47,39,34,26,15,57,42,20,30.55,30.46,30.38,10,10,10,8,6,,0.00,0,,14
2012-12-22,73,60,48,61,50,29,81,64,44,30.38,30.25,30.12,10,10,10,14,8,18,0.00,3,,121
2012-12-23,77,70,64,65,63,61,93,80,62,30.10,30.00,29.91,10,10,7,14,7,22,0.00,0,,183
2012-12-24,73,68,62,67,63,60,100,89,73,29.96,29.88,29.74,10,6,0,9,4,,0.00,0,Fog,157
2012-12-25,78,60,39,68,50,25,94,62,22,30.14,29.78,29.62,10,9,5,31,14,40,0.00,2,,268
2012-12-26,52,44,35,36,27,22,66,54,38,30.28,30.20,30.12,10,10,10,21,14,26,0.00,2,,2
2012-12-27,55,50,45,54,47,34,94,82,63,30.10,29.93,29.80,10,7,4,13,8,,0.00,8,Rain,24
2012-12-28,71,58,45,55,49,33,100,79,32,30.19,29.89,29.78,10,6,0,18,9,24,0.00,5,Fog,340
2012-12-29,55,47,39,31,25,22,63,46,28,30.47,30.39,30.22,10,10,10,16,13,22,0.00,0,,11
2012-12-30,63,52,42,59,42,27,90,68,49,30.44,30.33,30.17,10,10,3,15,10,,0.01,4,Rain,66
2012-12-31,71,67,63,68,64,60,96,89,81,30.14,30.02,29.90,10,7,2,13,8,21,0.02,7,Rain,168